Regional Weather Roundup
Issued by NWS

Home | Current Version | Previous Version | Text Only | Print | Product List | Glossary Off
Versions: 1 2 3 4 5 6 7 8 9 10 11 12 13 14 15 16 17 18 19 20 21 22 23 24 25 26 27 28 29 30 31 32 33 34 35 36 37 38 39 40 41 42 43 44 45 46 47 48 49 50

125
ASUS43 KDTX 211910
RWRMI
MICHIGAN HOURLY REGIONAL WEATHER ROUNDUP
NATIONAL WEATHER SERVICE DETROIT/PONTIAC MI
300 PM EDT SAT APR 21 2018

NOTE: "FAIR" INDICATES FEW OR NO CLOUDS BELOW 12,000 FEET WITH NO
SIGNIFICANT WEATHER AND/OR OBSTRUCTION TO VISIBILITY.

MIZ047>049-052>055-059>063-066>070-074>076-081>083-212000-
SOUTHEAST LOWER MICHIGAN

CITY           SKY/WX    TMP DP  RH WIND       PRES   REMARKS
ADRIAN         FAIR      53  26  35 CALM      30.43F
ALMA           FAIR      56  28  33 S9        30.41F
ANN ARBOR      FAIR      54  29  38 VRB5      30.42F
BAD AXE        FAIR      59  15  18 S5        30.42F
CARO           FAIR      60  24  25 W9        30.41F
DETROIT CITY   FAIR      53  16  23 VRB6      30.44F
DETROIT        CLOUDY    54  22  28 SW3       30.43F
FLINT          FAIR      56  24  29 CALM      30.41F
GROSSE ILE     FAIR      45  26  48 S6        30.43F
HILLSDALE      FAIR      52  23  32 CALM      30.41F
HOWELL         FAIR      54  24  30 CALM      30.41F

CITY           SKY/WX    TMP DP  RH WIND       PRES   REMARKS
JACKSON        FAIR      54  23  30 SW6       30.42F
LAMBERTVILLE   FAIR      53  26  34 E5        30.43F
LANSING        FAIR      56  26  31 SW7       30.41F
LAPEER         FAIR      57  23  27 NW7       30.42F
MASON          FAIR      57  20  23 S3        30.42S
MONROE         FAIR      49  20  31 SE8       30.43F
MT. CLEMENS    CLOUDY    51  15  24 S5        30.43F
PONTIAC        CLOUDY    54  25  32 E6        30.41F
PORT HOPE        N/A     41  31  67 SE15      30.42F
PORT HURON     FAIR      54  16  22 CALM      30.44F
TRI CITIES     FAIR      57  26  30 VRB3      30.41F
MIDLAND        FAIR      58  29  33 NE3       30.40F
TROY           FAIR      55  20  25 CALM      30.44F
SAGINAW HB     FAIR      57  27  30 SW8       30.41F
$$
MIZ043>046-050>051-056>058-064>065-071>073-077>080-212000-
SOUTHWEST LOWER MICHIGAN

CITY           SKY/WX    TMP DP  RH WIND       PRES   REMARKS
BATTLE CREEK   FAIR      55  28  35 SW7       30.41F
BENTON HARBOR  FAIR      54  23  30 W7        30.42F
BIG RAPIDS     FAIR      56   7  14 W3        30.39F
COLDWATER      FAIR      55  26  32 SE6       30.41F
FREMONT        FAIR      55   0  10 CALM      30.40F
HOLLAND        FAIR      54  24  31 NW6       30.42F
GRAND RAPIDS   CLOUDY    57  27  31 W5        30.41F
IONIA          FAIR      56  28  32 CALM      30.40F
KALAMAZOO      FAIR      57  28  33 S7        30.41F
LUDINGTON      FAIR      54  19  24 W6        30.42S
MARSHALL       FAIR      54  24  31 S5        30.41S
MOUNT PLEASANT FAIR      58  23  25 CALM      30.40F
MUSKEGON       CLOUDY    54  21  27 W7        30.42F
SOUTH HAVEN    FAIR      53  15  22 NW8       30.42F
$$
MIZ016>042-212000-
NORTHERN LOWER MICHIGAN

CITY           SKY/WX    TMP DP  RH WIND       PRES   REMARKS
ALPENA         FAIR      51  21  30 E10       30.41F
BEAVER ISLAND  FAIR      49  17  27 S12       30.40F
BELLAIRE       FAIR      55  10  17 SW3       30.42S
CADILLAC       FAIR      55  15  20 CALM      30.38F
CHARLEVOIX     FAIR      53  22  29 W7        30.45S
FRANKFORT      FAIR      51  13  21 SW7       30.42F
GAYLORD        FAIR      55  10  16 CALM      30.39F
GRAYLING       FAIR      54  11  17 SW3       30.39F
HARBOR SPRINGS FAIR      51  18  27 SW7       30.41F
HOUGHTON LAKE  FAIR      55  15  20 SW8       30.40F
MANISTEE       FAIR      55  16  21 W9        30.41F
OSCODA         FAIR      54  26  34 E8        30.42S
PELLSTON       FAIR      54  13  19 S7        30.41F
ROGERS CITY    FAIR      46  16  29 E3        30.42F
TRAVERSE CITY  FAIR      56  17  21 NW5       30.40F
$$
MIZ007>008-015-212000-
EASTERN UPPER MICHIGAN

CITY           SKY/WX    TMP DP  RH WIND       PRES   REMARKS
KINROSS        FAIR      56  13  18 S10       30.39
MACKINAC ISLAN FAIR      49  16  26 W6        30.41F
NEWBERRY       FAIR      47  20  33 S8        30.39S
S. S. MARIE    FAIR      57  19  22 SE7       30.37F
MUNISING         N/A     39  30  70 NE9       30.39S WCI  33
$$
MIZ004>006-011>014-085-212000-
CENTRAL UPPER MICHIGAN

CITY           SKY/WX    TMP DP  RH WIND       PRES   REMARKS
MANISTIQUE     FAIR      44  25  46 S16       30.39S
ESCANABA       FAIR      52  20  28 S12       30.38F
MENOMINEE      FAIR      57  17  21 W7        30.39F
SAWYER-GWINN   SUNNY     54  12  19 N6        30.36F
$$
MIZ001>003-009>011-084-212000-
WESTERN UPPER MICHIGAN

CITY           SKY/WX    TMP DP  RH WIND       PRES   REMARKS
IRON MOUNTAIN  FAIR      60  15  17 CALM      30.34F
HOUGHTON       FAIR      49  23  36 NW9       30.37S
COPPER HARBOR    N/A     41  28  60 NE5       30.39S
IRONWOOD       FAIR      55  13  18 SE6       30.36F
$$

ABBREVIATIONS USED IN REMARKS
   TC - TEMPERATURE IN CELSIUS
  WCI - WIND CHILL INDEX
   HX - HEAT INDEX
  VSB - VISIBILITY





USA.gov is the U.S. government's official web portal to all federal, state and local government web resources and services.